K4DNM Weather Reports


time (UTC)temp
C
wind
direction
speed
KPH
gust
KPH
rain 1hr
cm
rain 24hr
cm
rain mn
cm
humidity
%
barometer
mb
20260506002907 22 218 4.8 16.1 0.00 0.00 0.00 54 1013.7
20260506002406 22 173 6.4 14.5 0.00 0.00 0.00 53 1013.7
20260506001905 22 176 8.0 17.7 0.00 0.00 0.00 53 1013.6
20260506001407 23 236 6.4 17.7 0.00 0.00 0.00 53 1013.7
20260506000905 23 204 6.4 14.5 0.00 0.00 0.00 53 1013.6
20260506000408 23 186 6.4 14.5 0.00 0.00 0.00 53 1013.5
20260505235906 23 194 6.4 14.5 0.00 0.00 0.00 53 1013.4
20260505235407 23 188 6.4 14.5 0.00 0.00 0.00 52 1013.4
20260505234908 23 217 6.4 14.5 0.00 0.00 0.00 52 1013.4
20260505234407 23 197 6.4 14.5 0.00 0.00 0.00 52 1013.3
20260505233907 23 146 6.4 14.5 0.00 0.00 0.00 51 1013.3
20260505233406 23 201 6.4 14.5 0.00 0.00 0.00 51 1013.3
20260505232917 24 179 6.4 14.5 0.00 0.00 0.00 51 1013.4
20260505232400 24 206 6.4 14.5 0.00 0.00 0.00 50 1013.2
20260505231901 24 167 6.4 16.1 0.00 0.00 0.00 50 1013.2
20260505231400 24 264 6.4 16.1 0.00 0.00 0.00 51 1013.3
20260505230901 24 171 8.0 12.9 0.00 0.00 0.00 50 1013.2
20260505230400 24 153 6.4 16.1 0.00 0.00 0.00 50 1013.2
20260505225901 24 224 4.8 16.1 0.00 0.00 0.00 50 1013.2
20260505225401 24 156 4.8 14.5 0.00 0.00 0.00 50 1013.2
20260505224901 24 187 6.4 14.5 0.00 0.00 0.00 50 1013.3
20260505224622 25 185 8.0 14.5 0.00 0.00 0.00 50 1013.4
20260505224505 25 185 8.0 14.5 0.00 0.00 0.00 50 1013.4
20260505224123 25 308 8.0 16.1 0.00 0.00 0.00 49 1013.3
20260505224006 25 308 8.0 16.1 0.00 0.00 0.00 49 1013.3
20260505223402 25 196 6.4 16.1 0.00 0.00 0.00 49 1013.4
20260505222859 25 178 6.4 19.3 0.00 0.00 0.00 49 1013.5
20260505222356 25 85 6.4 19.3 0.00 0.00 0.00 48 1013.5
20260505221856 25 155 8.0 14.5 0.00 0.00 0.00 48 1013.4
20260505221612 25 140 8.0 17.7 0.00 0.00 0.00 48 1013.4
20260505221459 25 140 8.0 17.7 0.00 0.00 0.00 48 1013.4
20260505220853 26 178 8.0 17.7 0.00 0.00 0.00 47 1013.4
20260505220353 26 179 6.4 16.1 0.00 0.00 0.00 48 1013.4
20260505215853 26 186 8.0 17.7 0.00 0.00 0.00 48 1013.4
20260505215352 26 163 6.4 17.7 0.00 0.00 0.00 48 1013.5
20260505214853 26 238 6.4 16.1 0.00 0.00 0.00 48 1013.5
20260505214352 26 195 6.4 16.1 0.00 0.00 0.00 47 1013.5
20260505213852 26 196 6.4 20.9 0.00 0.00 0.00 46 1013.4
20260505213352 26 167 6.4 20.9 0.00 0.00 0.00 46 1013.3
20260505212850 26 183 6.4 12.9 0.00 0.00 0.00 46 1013.3
20260505212614 26 144 6.4 14.5 0.00 0.00 0.00 45 1013.3
20260505212455 26 144 6.4 14.5 0.00 0.00 0.00 45 1013.3
20260505211851 26 194 6.4 19.3 0.00 0.00 0.00 45 1013.4
20260505211352 26 134 8.0 19.3 0.00 0.00 0.00 45 1013.5
20260505210852 26 247 8.0 17.7 0.00 0.00 0.00 44 1013.4
20260505210352 26 159 8.0 17.7 0.00 0.00 0.00 46 1013.5
20260505205852 26 187 6.4 17.7 0.00 0.00 0.00 46 1013.6
20260505205352 26 189 6.4 19.3 0.00 0.00 0.00 47 1013.6
20260505204853 26 202 8.0 19.3 0.00 0.00 0.00 46 1013.6
20260505204352 27 190 6.4 16.1 0.00 0.00 0.00 46 1013.5
20260505204115 26 191 8.0 16.1 0.00 0.00 0.00 45 1013.5
20260505203956 26 191 8.0 16.1 0.00 0.00 0.00 45 1013.5
20260505203613 26 173 6.4 19.3 0.00 0.00 0.00 46 1013.5
20260505203456 26 173 6.4 19.3 0.00 0.00 0.00 46 1013.5
20260505202852 26 179 8.0 19.3 0.00 0.00 0.00 47 1013.5
20260505202617 26 170 9.7 19.3 0.00 0.00 0.00 46 1013.5
20260505202455 26 170 9.7 19.3 0.00 0.00 0.00 46 1013.5
20260505202119 26 165 6.4 14.5 0.00 0.00 0.00 46 1013.9
20260505202047 26 173 8.0 16.1 0.00 0.00 0.00 46 1013.6
20260505201948 26 188 8.0 16.1 0.00 0.00 0.00 46 1013.7
20260505201851 26 172 8.0 17.7 0.00 0.00 0.00 46 1013.7
20260505201751 26 171 6.4 17.7 0.00 0.00 0.00 46 1013.8
20260505195955 26 165 6.4 14.5 0.00 0.00 0.00 46 1013.9
20260505195350 26 213 6.4 16.1 0.00 0.00 0.00 44 1013.9
20260505194850 26 168 6.4 16.1 0.00 0.00 0.00 44 1014.0
20260505194350 26 174 6.4 16.1 0.00 0.00 0.00 45 1014.0
20260505193852 26 0 6.4 17.7 0.00 0.00 0.00 48 1014.2
20260505193347 26 130 6.4 17.7 0.00 0.00 0.00 45 1014.3
20260505192847 27 164 4.8 14.5 0.00 0.00 0.00 44 1014.3
20260505192347 27 146 4.8 14.5 0.00 0.00 0.00 45 1014.4
20260505191847 26 238 4.8 12.9 0.00 0.00 0.00 45 1014.5
20260505191347 26 140 4.8 14.5 0.00 0.00 0.00 47 1014.6
20260505190847 26 213 6.4 17.7 0.00 0.00 0.00 45 1014.7
20260505190348 26 206 6.4 17.7 0.00 0.00 0.00 46 1014.8
20260505185847 26 162 4.8 17.7 0.00 0.00 0.00 46 1014.9
20260505185605 26 80 4.8 16.1 0.00 0.00 0.00 47 1014.9
20260505185452 26 80 4.8 16.1 0.00 0.00 0.00 47 1014.9
20260505184847 26 71 6.4 16.1 0.00 0.00 0.00 45 1014.9
20260505184350 26 193 6.4 16.1 0.00 0.00 0.00 46 1015.0
20260505183844 26 194 8.0 14.5 0.00 0.00 0.00 47 1015.2
20260505183341 26 212 6.4 14.5 0.00 0.00 0.00 46 1015.3
20260505182841 26 157 3.2 12.9 0.00 0.00 0.00 46 1015.2
20260505182338 26 13 4.8 12.9 0.00 0.00 0.00 44 1015.2
20260505181842 26 242 6.4 16.1 0.00 0.00 0.00 49 1015.2
20260505181340 26 209 8.0 16.1 0.00 0.00 0.00 46 1015.3
20260505181321 26 144 8.0 14.5 0.00 0.00 0.00 46 1015.3
20260505180944 26 144 8.0 14.5 0.00 0.00 0.00 46 1015.3
20260505180339 26 95 6.4 14.5 0.00 0.00 0.00 46 1015.3
20260505180106 26 158 6.4 16.1 0.00 0.00 0.00 46 1015.3
20260505175946 26 158 6.4 16.1 0.00 0.00 0.00 46 1015.3
20260505175339 26 174 6.4 16.1 0.00 0.00 0.00 48 1015.4
20260505174841 26 129 4.8 14.5 0.00 0.00 0.00 50 1015.3
20260505174339 26 173 4.8 14.5 0.00 0.00 0.00 47 1015.4
20260505173838 26 215 4.8 11.3 0.00 0.00 0.00 46 1015.4
20260505173336 25 158 6.4 12.9 0.00 0.00 0.00 50 1015.4
20260505172838 25 175 6.4 14.5 0.00 0.00 0.00 49 1015.5
20260505172337 26 202 4.8 14.5 0.00 0.00 0.00 49 1015.5
20260505171839 25 0 4.8 14.5 0.00 0.00 0.00 51 1015.4
20260505171336 25 161 4.8 14.5 0.00 0.00 0.00 49 1015.5
20260505170838 25 161 6.4 17.7 0.00 0.00 0.00 51 1015.5
20260505170338 25 195 6.4 17.7 0.00 0.00 0.00 52 1015.6
20260505165839 25 9 4.8 12.9 0.00 0.00 0.00 52 1015.6
20260505165601 25 204 6.4 20.9 0.00 0.00 0.00 51 1015.7
20260505165443 25 204 6.4 20.9 0.00 0.00 0.00 51 1015.7
20260505164840 25 121 6.4 20.9 0.00 0.00 0.00 52 1015.8
20260505164335 25 171 4.8 12.9 0.00 0.00 0.00 52 1015.8
20260505163836 25 166 4.8 14.5 0.00 0.00 0.00 51 1015.8
20260505163332 24 340 6.4 16.1 0.00 0.00 0.00 54 1015.9
20260505162833 24 178 6.4 16.1 0.00 0.00 0.00 55 1015.8
20260505162332 24 193 8.0 16.1 0.00 0.00 0.00 56 1016.0
20260505161834 24 158 8.0 16.1 0.00 0.00 0.00 55 1016.0
20260505161332 25 178 6.4 16.1 0.00 0.00 0.00 54 1016.0
20260505160833 25 164 3.2 9.7 0.00 0.00 0.00 55 1016.1
20260505160332 25 153 3.2 8.0 0.00 0.00 0.00 53 1016.2
20260505153330 23 286 4.8 16.1 0.00 0.00 0.00 57 1016.3
20260505152833 23 189 6.4 16.1 0.00 0.00 0.00 55 1016.4
20260505152553 23 238 3.2 12.9 0.00 0.00 0.00 56 1016.4
20260505152437 23 238 3.2 12.9 0.00 0.00 0.00 56 1016.4
20260505151833 23 209 3.2 9.7 0.00 0.00 0.00 56 1016.5
20260505151334 23 240 3.2 8.0 0.00 0.00 0.00 58 1016.5
20260505150836 23 107 4.8 11.3 0.00 0.00 0.00 58 1016.5
20260505150336 22 182 4.8 12.9 0.00 0.00 0.00 57 1016.5
20260505140321 22 228 3.2 6.4 0.00 0.00 0.00 62 1016.4
20260505124815 18 184 3.2 11.3 0.00 0.00 0.00 70 1016.6
20260505124314 18 212 3.2 6.4 0.00 0.00 0.00 70 1016.6
20260505123811 18 177 3.2 6.4 0.00 0.00 0.00 71 1016.7
20260505123311 17 176 3.2 6.4 0.00 0.00 0.00 72 1016.6
20260505123040 17 237 1.6 6.4 0.00 0.00 0.00 70 1016.5
20260505122916 17 237 1.6 6.4 0.00 0.00 0.00 70 1016.5
20260505122312 17 59 1.6 4.8 0.00 0.00 0.00 72 1016.6
20260505122034 16 274 3.2 6.4 0.00 0.00 0.00 74 1016.6
20260505121916 16 274 3.2 6.4 0.00 0.00 0.00 74 1016.6
20260505121311 16 210 1.6 6.4 0.00 0.00 0.00 75 1016.6
20260505120811 15 206 3.2 6.4 0.00 0.00 0.00 77 1016.6
20260505120529 15 164 3.2 9.7 0.00 0.00 0.00 79 1016.5
20260505120417 15 164 3.2 9.7 0.00 0.00 0.00 79 1016.5
20260505115811 15 279 3.2 9.7 0.00 0.00 0.00 79 1016.5
20260505115532 15 235 3.2 9.7 0.00 0.00 0.00 79 1016.5
20260505115414 15 235 3.2 9.7 0.00 0.00 0.00 79 1016.5
20260505114807 15 241 3.2 6.4 0.00 0.00 0.00 80 1016.5
20260505114303 14 304 3.2 6.4 0.00 0.00 0.00 81 1016.5
20260505113803 14 195 1.6 6.4 0.00 0.00 0.00 81 1016.4
20260505113303 14 55 1.6 3.2 0.00 0.00 0.00 84 1016.4
20260505112804 13 285 1.6 3.2 0.00 0.00 0.00 86 1016.3
20260505112305 12 24 1.6 3.2 0.00 0.00 0.00 87 1016.3
20260505111803 12 111 1.6 1.6 0.00 0.00 0.00 91 1016.3
20260505111304 11 55 1.6 3.2 0.00 0.00 0.00 93 1016.2
20260505110803 11 298 1.6 3.2 0.00 0.00 0.00 93 1016.2
20260505110303 11 323 1.6 3.2 0.00 0.00 0.00 93 1016.1
20260505102220 10 331 1.6 3.2 0.00 0.00 0.00 92 1015.5
20260505101722 10 339 1.6 3.2 0.00 0.00 0.00 91 1015.5
20260505101221 10 320 1.6 3.2 0.00 0.00 0.00 91 1015.4
20260505100721 10 337 1.6 3.2 0.00 0.00 0.00 91 1015.4
20260505100221 10 336 1.6 3.2 0.00 0.00 0.00 91 1015.3
20260505095953 11 323 1.6 1.6 0.00 0.00 0.00 90 1015.3
20260505095825 11 323 1.6 1.6 0.00 0.00 0.00 90 1015.3
20260505095205 11 300 1.6 1.6 0.00 0.00 0.00 89 1015.3
20260505094706 11 323 1.6 3.2 0.00 0.00 0.00 89 1015.3
20260505094208 11 313 1.6 3.2 0.00 0.00 0.00 89 1015.3
20260505093708 11 310 1.6 3.2 0.00 0.00 0.00 89 1015.3
20260505093206 11 341 1.6 3.2 0.00 0.00 0.00 88 1015.3
20260505092705 11 315 1.6 3.2 0.00 0.00 0.00 88 1015.2
20260505092206 11 163 1.6 3.2 0.00 0.00 0.00 87 1015.2
20260505091705 12 302 1.6 3.2 0.00 0.00 0.00 86 1015.2
20260505091206 12 319 1.6 3.2 0.00 0.00 0.00 86 1015.1
20260505090705 12 321 1.6 1.6 0.00 0.00 0.00 85 1015.0
20260505090435 12 318 1.6 3.2 0.00 0.00 0.00 84 1015.0
20260505090310 12 318 1.6 3.2 0.00 0.00 0.00 84 1015.0
20260505085706 12 338 1.6 3.2 0.00 0.00 0.00 84 1015.1
20260505085206 12 308 1.6 1.6 0.00 0.00 0.00 83 1015.0
20260505084705 12 146 1.6 1.6 0.00 0.00 0.00 82 1015.0
20260505084153 13 325 1.6 1.6 0.00 0.00 0.00 81 1015.0
20260505083653 13 318 1.6 3.2 0.00 0.00 0.00 81 1015.0
20260505083137 13 298 1.6 4.8 0.00 0.00 0.00 80 1015.0
20260505082638 13 302 1.6 4.8 0.00 0.00 0.00 80 1014.9
20260505082406 13 264 1.6 3.2 0.00 0.00 0.00 79 1014.9
20260505082242 13 264 1.6 3.2 0.00 0.00 0.00 79 1014.9
20260505081639 13 331 1.6 3.2 0.00 0.00 0.00 78 1014.9
20260505081358 14 354 1.6 4.8 0.00 0.00 0.00 77 1014.8
20260505081242 14 354 1.6 4.8 0.00 0.00 0.00 77 1014.8
20260505080638 14 280 3.2 6.4 0.00 0.00 0.00 77 1014.8
20260505080138 14 276 3.2 6.4 0.00 0.00 0.00 77 1014.8
20260505075857 14 270 3.2 4.8 0.00 0.00 0.00 76 1014.8
20260505075743 14 270 3.2 4.8 0.00 0.00 0.00 76 1014.8
20260505075125 14 260 3.2 4.8 0.00 0.00 0.00 76 1014.8
20260505074625 14 260 3.2 4.8 0.00 0.00 0.00 76 1014.7
20260505074109 14 257 3.2 4.8 0.00 0.00 0.00 75 1014.7
20260505073838 15 247 3.2 4.8 0.00 0.00 0.00 75 1014.8
20260505073714 15 247 3.2 4.8 0.00 0.00 0.00 75 1014.8
20260505073329 15 224 3.2 8.0 0.00 0.00 0.00 75 1014.7
20260505073213 15 224 3.2 8.0 0.00 0.00 0.00 75 1014.7
20260505072607 15 184 3.2 8.0 0.00 0.00 0.00 74 1014.7
20260505072105 15 252 3.2 6.4 0.00 0.00 0.00 74 1014.7
20260505071605 15 211 3.2 8.0 0.00 0.00 0.00 73 1014.7
20260505071106 15 246 3.2 8.0 0.00 0.00 0.00 73 1014.7
20260505070604 15 117 3.2 8.0 0.00 0.00 0.00 73 1014.7
20260505070110 15 151 3.2 9.7 0.00 0.00 0.00 72 1014.7
20260505065604 15 247 3.2 9.7 0.00 0.00 0.00 72 1014.6
20260505065104 15 193 3.2 9.7 0.00 0.00 0.00 72 1014.6
20260505064830 15 95 3.2 9.7 0.00 0.00 0.00 72 1014.6
20260505064710 15 95 3.2 9.7 0.00 0.00 0.00 72 1014.6
20260505064105 15 213 3.2 9.7 0.00 0.00 0.00 72 1014.6
20260505063824 15 175 3.2 9.7 0.00 0.00 0.00 72 1014.6
20260505063709 15 175 3.2 9.7 0.00 0.00 0.00 72 1014.6
20260505063101 15 255 3.2 9.7 0.00 0.00 0.00 71 1014.6
20260505062602 15 232 3.2 9.7 0.00 0.00 0.00 71 1014.6
20260505062330 15 233 3.2 8.0 0.00 0.00 0.00 70 1014.6
20260505062205 15 233 3.2 8.0 0.00 0.00 0.00 70 1014.6
20260505061601 15 237 3.2 8.0 0.00 0.00 0.00 70 1014.6
20260505061102 15 151 3.2 11.3 0.00 0.00 0.00 70 1014.7
20260505060602 15 246 3.2 11.3 0.00 0.00 0.00 70 1014.7
20260505055602 16 258 3.2 11.3 0.00 0.00 0.00 70 1014.8
20260505055102 16 172 3.2 11.3 0.00 0.00 0.00 69 1014.8
20260505054558 16 152 3.2 9.7 0.00 0.00 0.00 69 1014.9
20260505054100 16 221 3.2 11.3 0.00 0.00 0.00 69 1014.9
20260505053600 16 250 3.2 11.3 0.00 0.00 0.00 68 1015.0
20260505053059 16 130 3.2 9.7 0.00 0.00 0.00 69 1015.0
20260505052816 16 187 3.2 9.7 0.00 0.00 0.00 69 1015.0
20260505052703 16 187 3.2 9.7 0.00 0.00 0.00 69 1015.0
20260505052059 16 255 3.2 9.7 0.00 0.00 0.00 68 1015.0
20260505051601 16 165 3.2 9.7 0.00 0.00 0.00 68 1015.0
20260505051059 16 186 3.2 9.7 0.00 0.00 0.00 68 1015.1
20260505050601 16 155 4.8 9.7 0.00 0.00 0.00 68 1015.1
20260505041556 17 224 4.8 14.5 0.00 0.00 0.00 67 1015.0
20260505041055 17 188 3.2 14.5 0.00 0.00 0.00 67 1015.0
20260505040820 17 200 3.2 14.5 0.00 0.00 0.00 67 1015.0
20260505040659 17 200 3.2 14.5 0.00 0.00 0.00 67 1015.0
20260505040055 17 201 4.8 11.3 0.00 0.00 0.00 66 1015.0
20260505035555 17 214 4.8 11.3 0.00 0.00 0.00 66 1015.0
20260505035054 17 211 4.8 9.7 0.00 0.00 0.00 66 1015.0
20260505034554 17 174 4.8 9.7 0.00 0.00 0.00 65 1015.0
20260505034056 17 185 3.2 9.7 0.00 0.00 0.00 65 1015.0
20260505033553 17 140 4.8 11.3 0.00 0.00 0.00 65 1015.0
20260505033052 17 228 4.8 14.5 0.00 0.00 0.00 64 1015.0
20260505032552 17 183 4.8 14.5 0.00 0.00 0.00 64 1015.0
20260505032052 17 214 4.8 16.1 0.00 0.00 0.00 65 1015.0
20260505031552 17 42 3.2 16.1 0.00 0.00 0.00 64 1014.9
20260505031053 17 190 3.2 9.7 0.00 0.00 0.00 64 1014.9
20260505030552 18 267 4.8 11.3 0.00 0.00 0.00 64 1014.9
20260505030052 18 75 4.8 11.3 0.00 0.00 0.00 63 1015.0
20260505025552 18 214 4.8 11.3 0.00 0.00 0.00 63 1014.9
20260505025053 18 225 4.8 11.3 0.00 0.00 0.00 63 1015.0
20260505024553 18 184 4.8 11.3 0.00 0.00 0.00 63 1015.0
20260505024311 18 218 4.8 14.5 0.00 0.00 0.00 63 1014.9
20260505024154 18 218 4.8 14.5 0.00 0.00 0.00 63 1014.9
20260505023549 18 218 4.8 14.5 0.00 0.00 0.00 63 1014.9
20260505023047 18 200 6.4 14.5 0.00 0.00 0.00 62 1014.8
20260505022547 18 210 6.4 12.9 0.00 0.00 0.00 62 1014.8
20260505022047 18 230 6.4 12.9 0.00 0.00 0.00 62 1014.8
20260505021547 19 193 6.4 16.1 0.00 0.00 0.00 61 1014.7
20260505021047 19 191 4.8 16.1 0.00 0.00 0.00 62 1014.7
20260505020548 19 168 4.8 14.5 0.00 0.00 0.00 62 1014.6
20260505020047 19 241 6.4 14.5 0.00 0.00 0.00 62 1014.7
20260505015547 19 159 6.4 14.5 0.00 0.00 0.00 62 1014.6
20260505015047 19 162 6.4 14.5 0.00 0.00 0.00 61 1014.6
20260505014815 20 167 4.8 14.5 0.00 0.00 0.00 61 1014.5
20260505014652 20 167 4.8 14.5 0.00 0.00 0.00 61 1014.5
20260505014046 20 174 6.4 14.5 0.00 0.00 0.00 61 1014.4
20260505013544 20 183 6.4 14.5 0.00 0.00 0.00 60 1014.4
20260505013045 20 176 6.4 12.9 0.00 0.00 0.00 60 1014.3
20260505012546 20 88 6.4 16.1 0.00 0.00 0.00 59 1014.2
20260505012046 20 208 6.4 16.1 0.00 0.00 0.00 59 1014.2
20260505011546 20 162 6.4 17.7 0.00 0.00 0.00 58 1014.1
20260505011046 20 189 6.4 17.7 0.00 0.00 0.00 57 1014.0
20260505010547 20 191 6.4 17.7 0.00 0.00 0.00 55 1013.8
20260505010308 20 169 6.4 17.7 0.00 0.00 0.00 53 1013.7
20260505010151 20 169 6.4 17.7 0.00 0.00 0.00 53 1013.7
20260505005545 20 149 6.4 17.7 0.00 0.00 0.00 50 1013.6
20260505005046 20 169 4.8 12.9 0.00 0.00 0.00 48 1013.4
20260505004543 20 156 3.2 9.7 0.00 0.00 0.00 48 1013.4
20260505004041 20 240 1.6 6.4 0.00 0.00 0.00 48 1013.2
20260505003540 20 180 3.2 8.0 0.00 0.00 0.00 48 1013.2